* Astronomy

Members Login
Post Info TOPIC: ISS debris re-entry


L

Posts: 131433
Date:
RE: ISS debris re-entry
Permalink  
 


Update:
ISS debris (an antenna cover) was predicted to re-enter the Earths atmosphere on the 24th February, 2011 @ --:-- GMT  ±-- hours.


ISS debris (a cable-reel) that was discarded overboard during a recent ISS spacewalk is predicted to re-enter the Earths atmosphere on the 1st March, 2011 @ --:-- GMT  ±-- hours.

TLE Data
ISS DEB
1 37350U 98067CD 11055.94838312 +.00599974 +15838-3 +15615-2 0 00664
2 37350 051.6355 014.5621 0005140 155.9817 204.1434 15.94397424005382

Period:       90.43 minutes
Inclination: 51.64°
Apogee:     302 km
Perigee:     289 km
Revolution Number: -
Predicted Location:  -

__________________


L

Posts: 131433
Date:
Permalink  
 

ISS debris (a cable-reel and an antenna cover) that were discarded overboard during a recent ISS spacewalk is predicted to re-enter the Earths atmosphere on the 23rd February, 2011 @ --:-- GMT  ±-- hours.

TLE Data
ISS DEB
1 37349U 98067CC 11054.20529518 .02146093 36951-2 31804-2 0 674
2 37349 051.6422 023.1685 0008253 152.5521 207.5942 16.05084661 5126

Period:       90.09 minutes
Inclination: 51.64°
Apogee:     284 km
Perigee:     274 km
Revolution Number: -
Predicted Location:  -

__________________
Page 1 of 1  sorted by
 
Quick Reply

Please log in to post quick replies.



Create your own FREE Forum
Report Abuse
Powered by ActiveBoard